Location: Godiavel Galaoual
(15.2485°N, 12.6604°W)
Time: 01:13:09
(UTC+00:00)

Transit 4A - Pass Details

Date: 16 June 2021
Orbit: 872 x 972 km, 66.8° (Epoch: 29 July)

Event Time Altitude Azimuth Distance (km) Brightness Sun altitude
Rises 21:43:18 0° 325° (NW) 3,462 12.0 -29.9°
Reaches altitude 10° 21:45:57 10° 316° (NW) 2,531 11.1 -30.4°
Maximum altitude 21:51:13 36° 252° (WSW) 1,385 8.9 -31.4°
Enters shadow 21:51:58 34° 236° (SW) 1,419 8.9 -31.5°
Drops below altitude 10° 21:56:36 10° 187° (S) 2,579 - -32.4°
Sets 21:59:20 0° 179° (S) 3,536 - -32.9°
